Theta_e
335 335 336 336 335 335 334 333 335 336 337 337 337 338 338 337 337 338 338 339 339 339 339 339 338 338 338 338 337 337 336 336 335 335 334 334 333 333 333 333 331 331 330 332 333 332 337 341 338 335 334 333 334 334 335 336 336 336 336 336 336 336 335
333 333 335 336 337 336 335 335 335 335 336 336 337 337 337 337 337 336 337 338 339 339 339 339 339 338 338 338 338 337 337 336 336 336 335 334 334 333 333 333 332 332 331 332 332 331 333 337 339 339 336 333 334 334 333 335 335 336 336 336 336 336 335
331 332 333 335 337 337 336 335 335 335 335 335 336 337 337 337 337 336 337 337 338 338 338 338 338 338 338 338 338 338 337 337 336 336 335 334 334 333 333 333 332 332 331 332 332 332 332 333 336 338 335 334 335 334 333 333 333 334 335 336 336 336 336
330 331 332 334 335 336 336 336 336 335 336 336 335 336 336 337 337 336 336 337 337 338 337 337 337 337 337 338 338 338 337 337 336 336 335 335 334 333 333 333 333 332 331 331 332 332 332 333 336 337 334 334 335 333 334 334 333 333 333 334 335 335 336
326 330 332 333 333 335 336 336 336 336 336 336 336 336 336 336 336 336 336 336 336 337 337 337 337 337 337 338 338 338 338 337 337 337 336 335 334 334 333 333 333 333 332 331 331 331 332 332 334 335 333 334 336 335 334 335 334 334 334 334 334 335 336
320 325 329 332 332 333 334 335 335 336 336 336 335 335 336 336 336 335 335 336 336 336 336 336 336 336 337 337 338 338 338 338 337 337 336 336 335 334 334 333 333 333 332 332 331 331 332 331 332 333 332 334 336 335 335 335 335 336 335 335 335 335 336
314 319 325 329 331 332 332 333 334 335 335 336 335 335 336 336 336 336 336 335 335 336 336 336 336 336 336 337 338 338 338 338 338 337 337 336 336 335 334 334 334 333 333 332 331 331 331 331 331 331 332 333 333 332 334 335 335 335 336 335 335 335 335
312 316 320 325 329 331 332 332 333 333 334 335 336 336 336 336 336 336 336 336 335 335 335 336 336 336 337 337 337 338 338 338 338 338 337 336 336 336 335 334 334 334 333 333 332 331 331 331 331 331 331 334 335 335 335 335 334 335 335 335 336 335 335
311 313 316 319 324 328 331 332 332 332 333 334 335 335 336 336 336 336 336 336 335 335 335 335 335 336 336 337 337 337 337 338 338 338 338 337 337 336 336 335 334 334 334 334 333 333 332 331 331 331 331 332 334 336 338 338 336 335 335 335 336 336 335
310 311 313 316 319 323 327 331 332 333 333 333 334 335 335 336 336 336 336 336 336 335 335 335 335 335 336 337 337 337 337 337 338 338 338 337 337 336 336 336 335 335 334 334 334 334 334 332 331 331 331 331 332 334 336 339 337 335 336 336 335 336 336
309 310 312 315 316 318 322 327 330 333 333 333 334 334 334 336 336 337 337 337 336 335 335 334 335 336 336 336 336 337 337 337 338 338 338 338 337 337 337 336 336 336 335 335 334 334 334 334 333 332 331 331 332 332 333 336 336 334 334 335 335 336 336
309 310 312 313 313 315 317 321 325 330 332 333 333 334 334 335 336 337 337 337 336 335 335 335 335 336 336 336 336 336 336 337 338 337 337 337 337 337 337 337 336 336 336 335 335 334 334 334 334 333 332 332 332 333 332 334 335 334 333 335 336 336 336
308 309 310 310 312 313 315 317 321 326 329 331 333 333 334 334 335 336 336 337 336 336 336 336 335 335 336 336 336 336 336 336 337 337 336 336 336 337 337 337 337 336 336 336 335 335 335 334 335 334 333 332 332 333 333 333 335 334 333 334 335 335 336
307 308 309 310 311 312 314 316 319 324 327 330 332 333 333 334 334 335 336 336 337 337 336 336 336 335 334 335 336 336 336 336 336 336 336 335 336 336 337 337 337 336 336 336 336 336 335 335 335 335 335 334 333 333 334 334 334 335 335 335 336 336 336
307 308 309 310 311 312 314 315 318 322 327 329 331 332 333 333 334 335 335 336 337 337 337 336 336 336 333 333 335 335 335 335 335 335 335 335 335 336 337 337 337 337 337 337 336 336 336 336 336 336 336 336 335 335 335 335 334 334 335 335 336 336 336
307 308 308 309 310 311 314 315 317 321 326 329 330 331 332 333 333 334 335 336 336 336 337 337 337 336 334 334 335 335 335 335 335 335 335 335 336 336 337 337 337 337 337 336 336 336 336 336 336 336 336 337 337 336 337 337 336 336 335 336 336 336 336
306 307 307 308 309 311 313 315 316 319 323 327 329 330 332 333 333 334 334 335 336 335 336 337 337 337 336 335 335 335 335 335 335 335 335 335 336 336 336 337 337 337 337 336 336 336 336 336 336 336 336 336 337 337 337 337 337 337 336 336 336 336 337
305 306 307 308 310 312 313 314 316 318 322 326 329 330 331 332 332 333 334 335 335 335 336 336 337 337 336 336 336 335 335 335 335 335 335 335 335 335 336 336 337 337 337 336 336 336 336 336 336 336 335 336 337 337 337 337 337 337 337 336 336 337 336
305 306 307 308 310 312 313 314 316 318 322 327 329 329 330 332 332 333 334 334 335 335 336 336 336 336 336 336 336 335 335 335 335 334 335 335 335 335 336 336 336 337 337 337 337 336 336 336 336 336 336 335 336 336 337 337 337 336 336 336 336 336 336
306 307 308 309 311 313 314 315 317 320 323 327 328 329 329 330 331 332 333 334 335 335 336 336 336 336 336 336 336 335 335 335 335 335 335 335 335 335 335 336 336 337 337 337 337 337 336 336 336 336 336 336 335 335 335 336 336 336 336 336 336 336 335
307 308 309 311 312 313 314 315 317 320 325 327 327 328 329 329 330 331 332 333 334 334 335 336 336 336 336 336 335 335 335 335 335 335 335 335 335 335 335 336 336 336 337 337 337 337 337 336 336 336 336 336 336 335 335 335 335 335 335 335 335 335 335
308 308 310 310 310 311 312 312 314 318 323 326 326 326 327 328 329 330 331 332 333 334 335 335 335 335 335 335 335 335 335 335 335 335 335 335 335 335 335 336 336 336 336 337 337 337 337 337 336 336 336 336 335 335 335 335 334 334 334 334 334 334 333
306 307 308 309 309 309 310 311 312 315 319 323 325 325 325 327 329 331 331 331 331 332 333 334 335 335 335 335 335 335 335 335 335 335 335 335 335 335 335 336 336 336 336 337 337 337 337 337 337 337 336 336 335 335 335 334 334 333 333 333 333 333 332
304 305 306 307 307 308 309 309 310 310 313 316 319 322 324 325 327 329 331 332 332 332 333 333 334 334 335 335 335 335 335 335 335 335 335 336 335 335 335 335 335 335 336 337 337 337 337 337 337 337 337 337 336 335 335 334 334 334 333 333 333 333 332
303 303 304 305 306 307 307 307 308 308 309 310 312 315 319 324 326 326 328 329 331 332 333 333 333 333 334 335 335 335 335 335 335 335 335 335 335 335 335 335 334 335 335 335 336 337 337 337 337 337 337 337 337 336 335 335 334 334 333 332 333 333 333
302 302 303 304 304 305 305 305 305 305 306 307 308 310 314 319 324 326 327 327 328 330 331 333 333 333 334 334 335 335 336 336 336 335 335 335 335 335 335 335 334 334 334 335 335 336 335 335 335 335 336 336 336 337 337 336 335 335 334 333 333 333 333
302 302 302 303 303 303 304 304 304 304 304 305 307 309 310 312 316 322 326 327 328 329 330 332 332 333 333 334 334 335 335 336 336 335 336 336 335 335 335 335 335 334 335 335 334 335 335 334 334 333 333 332 332 332 333 334 334 334 334 333 333 333 333
302 302 302 302 302 302 302 302 302 302 303 304 305 307 307 308 310 314 320 324 326 327 329 330 331 331 332 332 334 334 334 335 335 335 336 336 335 336 335 335 335 335 335 335 334 334 334 335 335 334 333 332 331 330 330 331 331 331 330 330 330 331 333
301 301 301 301 301 301 301 301 301 301 302 303 304 304 305 306 307 309 313 318 324 326 326 328 329 330 330 330 331 333 333 333 334 334 335 335 335 335 335 335 335 335 335 335 335 335 335 334 334 334 334 333 333 332 332 332 332 332 332 331 331 332 333
301 300 300 300 300 300 300 300 300 301 302 302 302 303 303 304 306 307 309 314 320 325 325 326 328 330 331 331 330 331 332 331 331 332 333 334 335 335 335 335 335 335 334 334 335 335 335 334 334 333 333 333 333 333 332 332 332 333 333 334 334 333 334
299 299 299 299 299 299 300 300 300 301 301 301 302 302 303 304 305 306 307 310 315 321 324 325 326 328 330 331 331 331 330 328 329 331 332 333 333 334 334 335 335 334 334 334 335 335 335 334 333 333 333 333 332 331 331 332 332 332 333 334 333 333 333
298 298 298 299 299 299 299 300 301 301 301 301 302 303 303 304 305 306 307 309 311 316 321 324 325 326 328 330 331 332 329 328 328 330 331 331 331 331 332 334 335 335 335 334 334 334 334 334 333 333 334 333 331 330 331 332 333 332 331 331 332 333 334
298 298 298 298 299 299 300 300 300 301 301 302 302 303 303 304 305 306 308 310 311 314 319 323 325 326 327 328 330 331 328 327 328 330 330 330 330 330 331 333 334 334 334 334 335 334 334 334 334 334 334 332 331 332 334 333 334 333 332 331 332 333 334
297 298 298 297 298 299 300 300 301 301 301 301 301 301 302 303 304 306 308 310 312 314 318 321 324 326 327 327 329 329 328 326 327 329 329 329 329 330 331 331 332 333 334 334 334 334 334 335 335 335 335 333 332 334 335 334 334 334 332 331 332 333 333
296 297 297 296 297 298 298 298 298 298 298 297 297 298 299 300 302 304 307 310 313 314 317 320 323 326 327 328 329 329 329 328 328 328 329 329 329 329 330 331 331 332 333 334 334 334 334 335 335 334 335 334 334 334 334 334 334 333 332 331 332 332 332
296 297 297 295 295 295 295 295 295 294 294 294 294 295 296 297 299 301 305 309 313 316 318 320 323 325 326 327 328 328 329 329 329 329 329 329 330 330 330 330 330 331 332 332 333 333 333 334 333 332 332 333 333 333 333 333 333 332 331 331 331 331 331
295 296 296 295 294 294 294 294 293 293 292 292 293 293 295 296 298 300 302 305 311 317 318 320 322 322 322 325 327 328 329 330 330 330 330 330 331 330 330 330 331 331 332 332 332 332 333 333 333 332 332 332 332 332 331 330 331 330 329 329 329 329 330
Wind_Speed
20 23 27 28 29 32 33 35 36 37 39 39 38 39 41 41 40 39 38 36 35 34 33 34 35 34 33 32 32 34 34 34 34 33 30 27 26 27 29 31 32 29 21 14 11 11 5 3 10 19 28 32 32 33 35 37 37 36 36 37 37 38 38
22 24 26 27 28 30 31 32 32 33 35 37 39 41 41 41 41 40 38 37 38 39 37 35 35 35 34 33 33 33 34 35 36 35 33 30 30 29 27 27 29 29 25 20 17 16 11 7 5 6 14 22 25 32 36 36 37 37 37 37 38 38 38
24 24 24 25 26 27 29 30 30 32 34 34 37 40 41 41 41 41 40 39 41 41 39 37 36 35 35 35 35 34 34 35 36 36 35 33 32 31 29 26 25 24 20 17 17 17 14 10 8 5 9 12 14 25 34 36 37 37 37 37 37 38 39
25 26 24 23 24 24 26 28 29 31 33 33 35 36 38 39 40 41 42 41 43 42 41 41 39 37 35 36 36 35 36 36 36 36 37 36 32 32 32 31 29 26 22 19 20 20 14 9 7 6 9 13 13 19 28 32 36 37 36 37 38 39 39
24 26 25 25 24 23 24 26 28 29 30 31 32 33 36 37 38 40 41 41 42 42 42 42 42 40 37 36 36 36 36 36 37 36 36 36 34 32 33 33 33 31 30 29 26 24 20 16 12 6 8 12 11 17 25 25 29 33 36 37 39 41 40
24 25 26 26 27 25 24 26 27 27 29 29 30 32 35 37 36 37 39 41 41 42 42 42 41 41 40 38 36 36 37 37 37 37 37 37 36 35 34 33 34 33 34 34 30 28 26 23 17 10 11 13 9 13 21 22 23 28 33 38 39 39 40
26 26 25 26 28 28 26 27 28 28 29 30 31 33 35 37 37 37 38 40 41 42 42 42 41 41 40 39 37 36 37 37 37 37 39 38 37 37 35 34 34 35 36 35 32 32 30 26 21 15 12 12 10 11 14 18 21 20 25 34 38 38 39
27 26 26 26 27 28 28 28 29 29 29 31 32 33 36 37 38 39 39 39 41 42 41 41 41 40 39 38 38 37 37 37 37 38 39 38 38 38 37 36 35 36 37 36 34 34 34 31 29 24 15 8 8 9 8 12 16 19 26 29 32 36 38
27 26 26 27 26 27 28 30 31 31 30 31 31 32 34 35 36 38 39 39 40 42 42 41 40 39 38 38 38 37 37 36 36 38 38 38 38 38 37 37 37 37 38 37 36 36 36 35 33 30 24 15 9 7 6 7 8 16 28 28 26 32 35
27 28 28 27 26 26 27 29 31 31 31 31 31 32 33 34 35 36 38 38 39 41 41 40 38 38 38 38 37 36 36 37 37 37 38 37 37 36 36 37 38 39 39 37 37 37 36 35 34 32 31 27 19 10 6 7 6 10 22 26 25 29 32
28 28 27 26 26 26 27 27 28 30 31 31 31 31 32 33 34 36 37 38 38 39 40 39 38 37 37 38 38 39 38 37 36 36 36 36 36 35 36 37 38 39 40 37 38 38 36 35 34 33 33 32 28 19 11 8 9 13 20 23 26 30 32
27 26 26 27 28 27 27 27 27 28 30 31 32 32 32 33 34 35 36 37 37 37 38 39 38 37 37 39 41 41 40 36 34 35 35 35 36 36 36 37 38 39 39 38 38 37 36 36 35 34 33 32 31 29 23 13 9 16 22 23 27 32 32
27 27 28 29 29 29 28 28 27 28 29 31 33 32 32 33 33 34 35 36 37 37 37 37 37 37 37 40 42 42 40 37 35 37 38 38 37 37 37 38 39 39 38 36 37 37 36 35 35 34 33 33 33 32 30 21 11 16 26 27 28 30 29
29 29 29 29 29 31 31 29 28 27 29 31 32 32 32 32 33 34 35 36 36 37 38 38 38 38 37 38 40 40 40 38 36 38 38 38 39 39 38 38 39 40 38 36 37 37 36 35 33 33 33 33 34 33 32 27 17 16 25 29 29 30 29
29 28 27 28 29 31 32 31 29 27 28 30 31 32 32 32 32 33 35 36 37 36 37 37 38 39 38 39 39 39 39 38 37 38 37 37 39 39 38 38 39 39 38 37 37 36 36 35 33 32 32 32 34 34 32 31 25 17 21 26 27 30 31
28 27 27 29 30 31 32 32 30 27 28 29 30 31 32 32 32 33 34 37 38 37 36 37 38 39 40 40 39 39 40 39 38 39 39 40 40 38 36 37 39 39 36 36 37 36 35 35 33 33 34 34 34 34 33 33 29 22 21 25 25 27 29
28 28 28 29 30 31 33 34 31 29 28 29 29 30 31 32 32 33 34 36 38 38 37 36 37 38 40 40 40 41 41 42 42 42 43 44 42 38 37 38 39 38 35 34 36 36 35 35 34 34 35 36 35 35 34 33 33 29 24 23 25 26 28
29 29 29 29 30 32 34 34 33 31 30 29 28 28 30 31 31 32 34 36 37 38 37 37 38 39 40 40 41 43 43 43 43 43 44 45 42 39 38 39 39 37 34 35 35 35 35 35 35 35 36 36 36 35 34 32 34 34 29 26 27 26 25
28 29 29 29 30 33 35 35 34 32 30 28 27 27 28 29 30 32 34 35 36 37 38 38 39 39 40 41 42 43 43 43 43 43 44 43 41 40 39 39 39 37 35 36 37 36 35 35 35 35 37 37 36 34 32 31 31 31 30 30 30 27 25
29 29 28 28 29 31 32 33 33 32 30 27 26 27 27 27 29 31 32 34 35 36 37 38 40 40 41 42 42 42 42 42 42 43 43 43 41 40 40 40 39 38 37 38 39 38 36 35 35 36 38 38 36 34 33 32 31 29 29 29 29 28 28
26 25 24 24 25 26 27 28 30 29 27 25 24 25 25 27 28 29 30 32 34 35 36 37 39 40 40 41 41 41 41 41 41 42 43 42 41 39 39 40 39 38 38 39 40 40 38 36 35 36 38 38 35 34 33 32 30 29 28 27 27 28 27
22 22 22 22 22 24 25 28 28 26 24 24 23 23 24 26 27 28 29 30 32 33 35 36 37 37 38 39 39 40 40 40 40 40 41 40 40 39 38 37 37 38 39 41 43 43 42 41 39 38 38 37 36 35 34 32 30 29 28 26 26 26 23
20 22 23 22 23 24 26 28 28 26 23 22 23 23 24 24 26 27 27 29 30 31 33 35 37 38 38 38 38 38 38 39 39 39 39 38 38 39 38 36 35 36 37 41 43 44 44 44 44 43 42 39 37 35 33 31 30 29 27 24 25 24 19
21 22 22 23 23 24 25 27 27 26 25 23 23 23 24 24 25 26 26 27 29 30 31 33 36 38 39 39 40 38 37 37 38 38 38 38 37 37 37 37 36 35 35 37 40 43 44 46 47 49 48 45 42 40 38 34 32 31 28 25 26 25 20
23 22 22 23 23 24 25 26 27 28 28 27 26 25 25 24 25 25 26 26 28 30 30 32 36 38 39 40 42 41 38 36 36 37 37 37 38 36 35 36 38 38 38 38 39 41 42 44 47 49 51 50 47 46 44 41 37 34 30 27 27 26 25
24 23 23 23 24 25 26 26 28 29 29 29 29 27 25 25 24 25 25 26 29 30 29 30 33 36 40 43 44 43 40 37 37 37 37 37 37 37 36 36 37 38 39 39 40 39 37 37 38 42 45 48 49 50 50 50 48 43 38 33 30 30 32
24 24 24 25 25 26 27 27 28 29 30 29 29 27 27 27 25 24 25 26 27 28 28 28 29 32 38 43 45 46 43 40 39 39 39 39 39 38 38 37 35 35 35 36 38 37 34 33 33 34 35 37 40 41 43 45 46 45 42 37 32 33 36
23 23 24 25 25 26 27 28 28 29 30 29 27 27 28 28 27 25 26 26 26 26 26 27 27 28 31 36 41 46 46 43 42 41 40 40 40 40 40 38 35 34 34 35 37 38 38 37 35 32 30 32 34 35 36 37 37 36 35 30 27 31 35
23 23 23 24 25 26 27 28 29 29 29 29 28 28 29 29 28 27 27 26 26 27 27 26 26 27 29 30 34 41 44 43 41 41 40 38 38 39 39 39 37 35 35 37 39 41 42 41 37 33 31 32 35 37 39 40 40 40 39 36 34 36 40
22 23 23 23 24 24 25 27 28 27 27 29 30 29 30 31 30 29 28 27 26 27 28 27 26 27 29 30 31 36 41 38 31 31 34 36 37 37 37 38 39 38 38 39 40 41 42 41 37 33 32 32 32 32 31 32 33 35 38 40 40 41 42
22 22 22 23 23 23 23 24 24 24 25 27 29 29 30 31 31 30 28 27 27 28 29 29 27 26 28 30 30 34 39 35 29 29 32 32 31 32 33 36 38 38 37 38 40 42 43 40 35 34 34 31 27 26 26 29 31 32 33 33 34 35 34
21 21 22 23 23 22 22 21 21 23 24 26 28 29 29 29 31 31 29 29 29 28 29 30 28 28 30 31 31 33 34 30 28 31 31 28 28 30 32 34 36 38 38 38 40 42 42 41 38 37 37 31 25 25 28 31 31 30 31 30 27 27 28
20 22 24 24 23 22 22 22 22 24 26 26 26 26 27 27 29 30 29 28 28 27 27 29 29 29 29 29 30 33 32 27 25 26 26 26 27 27 29 31 33 36 39 40 41 41 40 41 40 39 37 31 27 29 33 34 32 28 28 28 23 22 23
21 21 25 27 23 21 21 21 22 23 23 23 22 23 25 26 27 28 26 26 27 27 25 27 30 30 28 27 29 31 31 30 29 27 25 24 24 25 28 31 32 35 38 40 41 40 39 40 41 39 36 32 32 33 34 33 32 26 22 20 18 19 20
23 20 23 28 25 21 21 21 20 20 21 21 20 20 22 23 24 25 25 24 25 26 26 26 28 29 28 26 26 29 30 30 29 27 23 22 24 27 29 30 30 32 35 37 40 39 38 39 39 38 37 36 33 31 30 29 28 23 18 17 17 18 20
25 21 21 26 25 21 22 22 20 20 21 21 19 19 19 20 21 22 24 25 25 25 25 25 23 25 27 26 24 24 25 27 27 27 24 22 24 27 28 28 27 28 29 30 33 36 37 37 35 33 33 31 28 27 27 28 27 23 21 20 19 20 21
25 22 21 23 23 22 22 21 20 21 21 20 18 18 17 18 18 18 19 23 25 22 15 12 12 14 19 23 23 21 21 22 25 27 27 26 26 25 24 23 22 22 22 24 27 32 36 36 35 33 31 28 26 27 27 27 27 25 22 20 19 21 23
Wind_Direction
255 252 255 252 246 243 240 239 238 236 233 231 231 232 232 232 233 236 233 229 229 230 230 232 234 237 238 238 237 234 232 230 229 231 234 230 227 230 231 232 234 237 242 245 232 222 212 252 244 237 240 241 240 241 242 243 243 242 242 244 246 248 249
267 262 262 260 254 249 245 244 241 239 236 233 232 232 233 233 234 235 232 229 228 227 227 228 231 234 236 237 236 234 232 230 230 232 235 233 230 231 231 232 235 239 244 249 247 233 219 225 246 241 240 240 240 241 241 242 244 244 243 244 244 246 247
279 272 267 264 259 250 247 247 245 242 240 236 233 232 233 234 235 235 233 231 230 228 227 227 227 228 230 233 234 233 232 231 230 231 234 236 234 232 232 232 233 235 239 245 244 238 229 227 238 248 241 233 233 240 240 239 242 244 245 245 244 244 244
289 279 269 263 262 254 246 246 246 245 243 239 237 236 235 236 236 235 234 232 231 229 228 229 228 227 228 230 231 230 230 230 230 231 233 236 235 234 233 232 233 233 233 236 236 235 231 226 235 251 248 240 238 243 242 241 242 243 244 245 244 244 244
302 288 276 267 263 257 250 249 247 247 246 242 241 240 239 238 237 235 234 232 230 229 228 229 229 228 229 230 228 226 227 228 229 230 232 234 234 234 233 232 234 235 235 237 237 236 236 235 235 245 254 247 245 248 247 246 246 245 244 244 245 245 245
314 301 287 276 267 260 254 253 251 248 247 246 243 241 241 239 237 236 234 233 231 229 228 228 228 227 227 228 227 225 225 226 227 228 231 234 234 234 234 234 234 235 237 239 238 238 240 241 238 241 251 247 245 254 252 249 249 249 247 245 244 245 245
317 312 301 288 276 267 258 255 254 252 250 250 247 245 245 243 240 237 236 235 234 232 230 228 227 226 226 226 226 225 225 226 226 228 231 234 234 235 235 235 235 236 238 239 239 238 239 239 236 236 245 250 252 259 260 252 248 249 249 247 245 244 244
313 313 310 302 289 276 266 259 256 254 253 253 252 250 247 245 242 240 238 236 236 234 232 229 227 226 225 225 225 225 225 226 226 227 230 232 233 234 235 236 237 238 239 239 239 239 238 238 238 237 235 241 256 259 264 260 252 247 248 250 249 246 246
310 311 311 309 301 289 276 266 260 258 256 255 255 253 249 244 242 241 239 236 235 234 232 229 226 225 225 224 224 224 225 225 225 227 229 231 233 234 234 235 238 240 241 240 240 241 241 240 241 240 235 229 240 256 259 264 261 253 251 249 249 250 248
307 308 310 309 307 302 290 275 265 260 258 257 256 255 252 247 242 241 240 237 234 232 231 229 226 224 224 224 224 224 224 225 225 227 228 230 232 233 234 235 237 240 243 242 241 242 243 243 242 241 238 234 233 240 252 256 250 251 252 247 244 250 250
306 307 307 307 307 307 301 290 274 264 260 259 257 256 254 251 246 242 240 237 234 232 230 228 225 223 221 222 223 224 225 224 224 226 227 229 232 233 234 235 236 239 242 242 242 242 242 244 244 242 240 237 234 233 238 251 251 247 250 249 246 248 251
306 305 304 304 306 305 303 299 288 275 268 263 259 257 255 253 249 245 242 239 237 235 232 228 225 222 220 221 223 224 225 223 222 224 226 227 232 234 234 235 236 238 240 241 242 243 242 242 244 243 241 238 236 235 236 240 254 251 247 249 252 252 253
305 304 302 303 304 304 302 301 295 285 275 267 261 257 255 253 251 248 244 241 239 236 233 229 224 222 220 220 222 223 224 221 221 225 226 226 227 230 233 234 235 237 238 238 240 242 241 241 241 241 240 239 237 236 237 236 244 255 251 251 257 260 260
305 304 302 302 302 302 302 301 299 291 280 270 263 258 256 255 253 250 245 242 240 236 233 229 225 222 221 222 222 223 225 223 222 225 228 227 224 225 229 232 235 236 236 235 237 238 240 240 239 239 238 238 238 237 235 234 238 253 255 252 254 259 261
305 303 302 302 300 298 300 302 303 296 283 274 268 261 257 255 254 251 246 242 240 237 233 230 227 225 224 225 224 224 226 226 225 226 227 229 227 225 226 229 234 235 234 234 235 236 238 238 237 237 237 236 238 238 234 233 235 244 254 253 250 254 257
303 303 302 300 296 295 298 302 304 299 287 278 272 266 260 256 254 251 246 243 241 239 235 232 230 226 225 226 224 224 226 226 226 227 227 229 229 227 225 227 232 233 232 232 234 235 236 238 237 236 237 236 237 239 236 234 235 238 248 254 251 251 254
300 301 301 298 294 294 297 301 303 300 291 281 274 269 263 258 254 250 246 243 242 240 236 233 231 229 227 226 225 225 227 227 226 226 226 228 229 227 226 227 231 231 230 231 234 235 235 236 237 237 238 238 238 239 239 237 238 240 245 254 254 250 252
298 298 298 297 296 296 298 301 302 300 293 282 275 271 266 261 256 251 246 242 241 240 237 234 232 230 228 227 226 227 227 227 227 225 226 227 228 227 226 228 230 230 228 229 232 234 233 234 235 236 238 239 238 239 240 239 239 240 242 248 254 253 253
298 297 296 296 298 300 300 300 301 299 292 283 278 274 269 264 258 252 246 241 240 239 238 235 232 231 230 228 226 227 227 227 227 226 226 227 228 228 227 229 231 229 226 228 231 232 233 232 233 235 237 239 238 238 239 239 239 239 240 245 251 254 254
301 299 298 299 303 306 305 303 302 298 289 282 279 278 274 268 262 255 248 243 241 240 239 236 233 231 230 228 227 226 226 226 226 226 227 227 228 228 229 230 231 230 227 228 231 232 232 231 232 235 237 238 238 237 238 238 238 238 239 243 248 251 253
309 307 306 308 313 315 316 317 314 305 292 283 282 283 280 275 268 261 253 247 244 243 241 238 235 232 230 229 228 227 227 226 225 226 227 228 228 228 230 231 232 232 230 230 232 232 232 231 231 234 236 237 237 236 237 237 237 238 239 242 246 248 251
320 319 317 315 319 323 326 327 326 320 305 292 290 291 287 281 273 265 258 252 248 245 243 241 239 236 232 229 229 229 228 227 226 226 226 227 228 229 230 231 232 233 233 233 234 234 233 232 231 233 235 235 234 234 235 236 236 236 238 240 244 246 247
323 322 320 320 322 326 329 328 329 332 327 313 304 300 295 287 278 268 260 256 252 247 244 243 242 240 237 233 232 231 230 229 228 227 226 226 227 228 229 231 232 234 235 236 236 236 235 234 234 235 236 235 233 232 233 234 234 234 234 236 241 241 239
324 322 322 323 324 325 328 328 328 332 335 331 322 314 305 294 284 275 267 260 256 251 247 246 246 244 241 237 235 233 231 230 229 228 227 226 227 228 229 230 232 234 237 239 239 238 237 236 236 237 238 237 234 232 230 230 231 232 231 232 238 238 234
324 323 323 323 323 323 325 326 328 329 331 331 330 326 317 302 290 282 276 269 263 258 253 251 249 247 244 241 238 235 232 230 229 228 228 227 228 228 229 231 232 234 237 240 242 241 240 239 238 238 238 238 237 235 234 233 232 231 228 229 235 237 235
324 324 324 324 322 322 323 324 326 327 327 326 326 326 322 314 303 291 281 273 268 265 261 257 252 248 245 243 240 237 234 229 227 228 228 228 229 227 227 228 231 233 234 237 241 243 244 244 244 244 243 242 239 237 236 236 236 235 232 230 232 236 238
324 323 325 325 322 321 321 321 322 323 323 323 322 321 320 319 315 305 292 282 273 268 265 263 260 254 248 245 241 238 235 231 228 227 227 227 228 227 226 225 226 230 232 232 236 240 243 244 247 250 254 255 252 246 241 239 238 237 237 234 235 241 245
324 322 323 324 322 320 318 318 319 320 319 318 317 315 314 315 315 312 305 295 283 274 267 265 264 260 252 247 241 236 233 231 229 227 226 225 225 226 227 226 224 225 227 229 230 233 236 239 241 243 248 255 258 255 251 249 246 244 246 246 246 253 258
325 323 322 321 319 318 317 316 316 317 316 314 312 312 313 312 311 311 310 305 293 281 274 269 266 262 256 250 243 235 230 228 227 226 226 225 225 226 227 227 226 224 225 229 232 234 235 236 236 236 238 243 248 249 249 249 248 246 248 250 249 252 258
327 325 322 320 317 314 313 312 312 313 313 311 311 312 311 310 310 308 308 306 297 285 278 272 267 265 260 252 244 235 230 227 225 225 225 226 226 226 226 227 227 226 224 227 233 239 239 235 232 234 238 240 244 246 249 251 252 249 249 249 248 249 253
331 327 322 317 313 311 310 309 307 308 309 307 307 309 309 308 307 306 304 303 299 290 283 275 266 262 259 251 242 235 231 228 226 226 228 228 229 230 231 231 229 227 225 227 232 237 237 232 228 230 234 235 234 234 240 250 253 252 252 251 248 248 253
334 328 321 314 309 308 307 306 306 305 304 304 304 306 308 307 304 304 303 302 301 294 286 280 271 262 258 252 242 233 228 225 224 225 227 228 228 232 235 236 233 229 229 231 233 235 233 228 223 223 227 225 218 221 233 242 244 246 247 247 246 247 251
339 340 338 328 317 310 305 303 305 305 302 302 304 306 308 307 304 303 303 302 302 297 288 282 275 266 260 255 245 233 225 221 221 222 223 222 222 224 229 232 233 232 231 233 235 235 234 229 222 220 221 216 213 227 239 241 241 243 244 243 244 248 252
346 351 355 348 335 324 321 316 313 312 310 311 312 311 311 311 307 305 305 303 304 303 295 284 275 269 262 255 248 236 226 220 220 220 221 221 221 222 225 228 231 232 233 234 236 236 235 231 225 223 222 219 221 234 242 242 243 244 239 235 238 243 249
351 350 356 358 351 343 344 343 338 335 333 329 324 317 316 317 314 311 312 310 309 309 305 293 279 269 261 253 244 237 230 225 222 219 217 218 221 225 229 230 232 235 236 237 237 237 236 235 231 229 228 227 229 234 237 238 240 238 229 228 234 238 243
357 354 355 1 360 354 352 352 351 350 345 338 331 323 320 320 318 319 321 321 322 321 315 302 284 269 263 254 242 234 232 230 227 223 217 215 221 228 233 235 235 238 241 242 243 243 241 241 241 240 237 236 235 236 235 234 235 234 230 228 229 232 239
0 360 357 359 3 2 358 354 355 355 350 344 337 329 326 324 322 326 327 329 337 344 332 300 276 267 263 251 237 229 227 226 227 227 223 221 224 227 231 234 236 239 243 244 246 246 244 244 246 250 251 250 246 241 235 233 234 235 232 227 226 231 238